Skip Page Navigation
NASA JPL Caltech
NASA Logo - Jet Propulsion Laboratory + View the NASA Portal
+ Center for Near-Earth Object Studies
JPL Home Earth Solar System Stars & Galaxies Technology
JPL Solar System Dynamics
BODIES ORBITS EPHEMERIDES TOOLS PHYSICAL DATA DISCOVERY FAQ SITE MAP
IMPORTANT: The SSD Announcement email list is now available. Major changes are coming in the near future, including possible hostname and/or URL changes. To be notified of such changes, subscribe to this email list.

Please visit this page for more details.


JPL Small-Body Database Browser
Search: [ help ]  
136448 (2005 ES125)
Classification: Main-belt Asteroid          SPK-ID: 2136448
Ephemeris | Orbit Diagram | Orbital Elements | Mission Design | Physical Parameters | Discovery Circumstances | Close-Approach Data ]

[ show orbit diagram ]
Orbital Elements at Epoch 2458600.5 (2019-Apr-27.0) TDB
Reference: JPL 14 (heliocentric ecliptic J2000)
 Element Value Uncertainty (1-sigma)   Units 
e .1768595360908567 5.4289e-08  
a 3.156288852892921 4.5909e-08 au
q 2.598069070601536 1.9033e-07 au
i 9.102525882995696 5.9869e-06 deg
node 276.1814276302114 6.6409e-05 deg
peri 331.550752922287 7.5887e-05 deg
M 138.5956475540778 4.0723e-05 deg
tp 2457811.983781798673
(2017-Feb-27.48378180)
0.00022046 TDB
period 2048.158391422197
5.61
4.4686e-05
1.223e-07
d
yr
n .1757676562065221 3.8349e-09 deg/d
Q 3.714508635184305 5.4028e-08 au
  Orbit Determination Parameters
   # obs. used (total)      272  
   data-arc span      8548 days (23.40 yr)  
   first obs. used      1995-08-29  
   last obs. used      2019-01-23  
   planetary ephem.      DE431  
   SB-pert. ephem.      SB431-N16  
   condition code      0  
   norm. resid. RMS      .54326  
   source      ORB  
   producer      Otto Matic  
   solution date      2019-Jul-14 03:04:59  

Additional Information
 Earth MOID = 1.58809 au 
 Jupiter MOID = 1.3924 au 
 T_jup = 3.162 
[ show covariance matrix ]

Ephemeris | Orbit Diagram | Orbital Elements | Mission Design | Physical Parameters | Discovery Circumstances | Close-Approach Data ]

Physical Parameter Table
Parameter Symbol Value Units Sigma Reference Notes
absolute magnitude H 15.1   n/a MPO412865  
diameter diameter 6.614 km 0.256 urn:nasa:pds:neowise_diameters_albedos::2.0[mainbelt] (http://adsabs.harvard.edu/abs/2011ApJ...741...68M)  
geometric albedo albedo 0.040   0.008 urn:nasa:pds:neowise_diameters_albedos::2.0[mainbelt] (http://adsabs.harvard.edu/abs/2011ApJ...741...68M)  

136448 (2005 ES125)          Discovered 2005-Mar-08 by CSS at Catalina
Reference: 20060907/Numbers.arcLast Updated: 2006-09-10

[ show close-approach data ]
Ephemeris | Orbit Diagram | Orbital Elements | Mission Design | Physical Parameters | Discovery Circumstances | Close-Approach Data ]
ABOUT SSD CREDITS/AWARDS PRIVACY/COPYRIGHT GLOSSARY LINKS
FirstGov
(server date/time)  
NASA Home Page
Site Manager:   Ryan S. Park
Webmaster  Alan B. Chamberlin